Waarnemingen

Advertentie
Mijn weer
Hoogeveen aws, Nederland (6279): temperatuur & dauwpunt: 14.01.2019 12:00:00 - 20.01.2019 12:00:00 (CET)Hoogeveen aws, Nederland (6279): temperatuur 5cm: 14.01.2019 12:00:00 - 20.01.2019 12:00:00 (CET)Hoogeveen aws, Nederland (6279): windsnelheid & windstoten: 14.01.2019 12:00:00 - 20.01.2019 12:00:00 (CET)Hoogeveen aws, Nederland (6279): windrichting: 14.01.2019 12:00:00 - 20.01.2019 12:00:00 (CET)Hoogeveen aws, Nederland (6279): luchtdruk: 14.01.2019 12:00:00 - 20.01.2019 12:00:00 (CET)Hoogeveen aws, Nederland (6279): zicht: 14.01.2019 12:00:00 - 20.01.2019 12:00:00 (CET)Hoogeveen aws, Nederland (6279): neerslag: 14.01.2019 12:00:00 - 20.01.2019 12:00:00 (CET)
Datum & Tijd tt [°C] td [°C] tt 5cm [°C] ff [km/u] ff [kn] fx [km/u] fx [kn] dd ppp [hPa] vv [km] rr [mm]
20.01.2019 12:00:00 -0,4 -3,4 0,7 4 2 7 4 O 1019,3 18 0,0
20.01.2019 11:00:00 -2,1 -4,0 -1,5 7 4 11 6 OZO 1018,9 13 0,0
20.01.2019 10:00:00 -3,9 -5,2 -4,0 7 4 11 6 O 1018,4 11 0,0
20.01.2019 09:00:00 -6,2 -6,2 -7,1 4 2 7 4 ONO 1017,8 13 0,0
20.01.2019 08:00:00 -5,8 -6,5 -7,8 4 2 7 4 ONO 1017,1 14 0,0
20.01.2019 07:00:00 -5,9 -6,9 -7,9 7 4 7 4 ONO 1016,8 20 0,0
20.01.2019 06:00:00 -5,5 -6,6 -7,4 7 4 11 6 O 1016,5 28 0,0
20.01.2019 05:00:00 -5,4 -6,7 -7,3 4 2 11 6 O 1016,4 31 0,0
20.01.2019 04:00:00 -5,3 -6,9 -7,5 7 4 11 6 O 1016,4 35 0,0
20.01.2019 03:00:00 -4,9 -6,7 -8,0 7 4 7 4 O 1016,5 36 0,0
20.01.2019 02:00:00 -4,4 -6,5 -8,2 7 4 7 4 O 1016,4 40 0,0
20.01.2019 01:00:00 -4,9 -6,7 -7,5 7 4 11 6 OZO 1016,3 38 0,0
20.01.2019 00:00:00 -4,2 -6,6 -7,0 7 4 14 8 OZO 1016,2 40 0,0
19.01.2019 23:00:00 -3,1 -6,3 -5,2 11 6 18 10 OZO 1016,1 48 0,0
19.01.2019 22:00:00 -2,9 -5,5 -4,4 11 6 18 10 OZO 1016,1 37 0,0
19.01.2019 21:00:00 -2,1 -4,9 -3,3 14 8 22 12 OZO 1016,0 37 0,0
19.01.2019 20:00:00 -2,2 -4,7 -3,1 14 8 22 12 OZO 1016,0 35 0,0
19.01.2019 19:00:00 -1,8 -4,5 -2,8 14 8 18 10 OZO 1016,0 33 0,0
19.01.2019 18:00:00 -1,3 -4,3 -2,8 11 6 14 8 OZO 1016,1 39 0,0
19.01.2019 17:00:00 -0,7 -3,6 -1,9 11 6 18 10 OZO 1016,1 38 0,0
19.01.2019 16:00:00 0,3 -2,9 -0,2 11 6 18 10 OZO 1016,3 38 0,0
19.01.2019 15:00:00 1,4 -2,3 1,2 11 6 18 10 OZO 1016,8 39 0,0
19.01.2019 14:00:00 1,6 -2,6 2,3 14 8 18 10 ZO 1017,2 30 0,0
19.01.2019 13:00:00 1,1 -2,4 1,5 14 8 18 10 ZO 1017,8 29 0,0
19.01.2019 12:00:00 0,0 -2,7 0,3 14 8 18 10 ZO 1018,4 24 0,0
19.01.2019 11:00:00 -1,1 -2,9 -1,3 11 6 14 8 ZO 1018,6 14 0,0
19.01.2019 10:00:00 -3,0 -4,3 -3,9 7 4 11 6 ZO 1018,7 11 0,0
19.01.2019 09:00:00 -3,9 -4,8 -5,8 4 2 11 6 OZO 1018,6 9 0,0
19.01.2019 08:00:00 -3,6 -4,8 -5,6 7 4 11 6 ZO 1018,4 10 0,0
19.01.2019 07:00:00 -3,3 -4,3 -6,3 7 4 11 6 ZO 1018,3 9 0,0
19.01.2019 06:00:00 -2,7 -4,2 -4,0 7 4 14 8 ZO 1018,6 11 0,0
19.01.2019 05:00:00 -2,6 -3,9 -4,1 11 6 11 6 ZO 1018,8 10 0,0
19.01.2019 04:00:00 -2,7 -3,5 -4,6 7 4 14 8 ZO 1019,1 6 0,0
19.01.2019 03:00:00 -2,4 -3,2 -3,7 7 4 11 6 ZO 1019,3 7 0,0
19.01.2019 02:00:00 -2,9 -3,4 -4,8 7 4 7 4 ZO 1019,6 6 0,0
19.01.2019 01:00:00 -3,2 -4,1 -5,1 7 4 7 4 ZO 1019,8 7 0,0
19.01.2019 00:00:00 -1,8 -3,2 -5,1 7 4 11 6 ZZO 1019,9 10 0,0
18.01.2019 23:00:00 -1,9 -4,2 -4,5 7 4 11 6 Z 1020,0 22 0,0
18.01.2019 22:00:00 -1,9 -4,3 -3,4 7 4 14 8 Z 1020,1 30 0,0
18.01.2019 21:00:00 -1,5 -3,7 -3,0 7 4 14 8 ZZW 1020,1 26 0,0
18.01.2019 20:00:00 -0,9 -2,8 -2,2 11 6 14 8 ZZW 1019,9 31 0,0
18.01.2019 19:00:00 -0,6 -2,7 -2,2 7 4 14 8 ZZW 1019,8 38 0,0
18.01.2019 18:00:00 0,4 -1,9 -0,4 11 6 18 10 ZW 1019,8 41 0,0
18.01.2019 17:00:00 1,0 -1,5 0,3 11 6 14 8 ZZW 1019,7 38 0,0
18.01.2019 16:00:00 2,3 -0,6 1,9 7 4 22 12 ZW 1019,6 34 0,0
18.01.2019 15:00:00 4,6 -0,1 5,0 14 8 25 14 ZW 1019,4 45 0,0
18.01.2019 14:00:00 4,4 -0,7 5,0 18 10 25 14 ZW 1019,3 41 0,0
18.01.2019 13:00:00 2,9 -0,9 2,9 22 12 32 18 ZW 1019,7 45 0,0
18.01.2019 12:00:00 2,5 -1,2 2,7 18 10 29 16 ZW 1019,6 34 0,0
18.01.2019 11:00:00 1,4 -1,1 1,3 18 10 22 12 ZW 1019,4 41 0,0
18.01.2019 10:00:00 0,1 -1,6 -0,3 14 8 22 12 ZW 1018,9 35 0,0
18.01.2019 09:00:00 -1,0 -2,3 -2,0 14 8 22 12 ZW 1018,5 33 0,0
18.01.2019 08:00:00 -2,9 -3,6 -3,7 11 6 14 8 ZW 1017,7 26 0,0
18.01.2019 07:00:00 -3,3 -3,7 -4,3 7 4 14 8 ZW 1017,2 22 0,0
18.01.2019 06:00:00 -2,8 -3,7 -3,8 11 6 18 10 WZW 1016,9 30 0,0
18.01.2019 05:00:00 -3,3 -4,0 -4,1 7 4 14 8 W 1016,3 30 0,0
18.01.2019 04:00:00 -1,1 -1,9 -2,0 11 6 14 8 W 1015,9 34 0,0
18.01.2019 03:00:00 -1,4 -2,4 -2,5 11 6 14 8 WNW 1015,3 31 0,0
18.01.2019 02:00:00 -1,4 -2,5 -2,7 7 4 11 6 NW 1014,3 44 0,0
18.01.2019 01:00:00 -1,0 -2,5 -2,9 11 6 18 10 NW 1013,4 45 0,0
18.01.2019 00:00:00 0,2 -2,2 -1,2 14 8 18 10 NNW 1011,9 48 0,0
17.01.2019 23:00:00 0,4 -1,4 -0,6 7 4 22 12 NW 1010,6 42 0,1
17.01.2019 22:00:00 0,6 -0,2 0,1 14 8 18 10 W 1009,1 25 0,2
17.01.2019 21:00:00 0,2 -0,3 0,0 7 4 25 14 W 1008,0 21 0,2
17.01.2019 20:00:00 0,8 -0,7 0,3 18 10 25 14 W 1006,6 46 0,0
17.01.2019 19:00:00 0,9 -0,8 0,4 14 8 25 14 W 1005,5 48 0,0
17.01.2019 18:00:00 1,5 -0,1 1,0 18 10 32 18 WNW 1004,6 44 0,0
17.01.2019 17:00:00 2,4 0,4 2,0 14 8 25 14 W 1003,4 35 0,0
17.01.2019 16:00:00 2,8 0,3 2,3 18 10 29 16 W 1002,2 40 0,0
17.01.2019 15:00:00 3,4 1,0 3,1 14 8 36 19 W 1000,9 34 0,0
17.01.2019 14:00:00 2,9 1,1 2,9 29 16 54 29 NW 1000,6 9 0,2
17.01.2019 13:00:00 3,3 2,3 3,4 18 10 36 19 WNW 999,9 11 0,1
17.01.2019 12:00:00 3,6 2,3 3,8 25 14 36 19 WNW 999,7 17 0,8
17.01.2019 11:00:00 4,4 3,2 4,4 22 12 36 19 ZW 999,2 21 0,0
17.01.2019 10:00:00 4,4 3,0 4,2 22 12 36 19 ZW 999,1 17 0,1
17.01.2019 09:00:00 4,2 3,0 3,9 22 12 32 18 ZW 999,0 17 0,0
17.01.2019 08:00:00 3,4 2,6 3,1 22 12 29 16 ZW 998,7 12 0,0
17.01.2019 07:00:00 3,4 2,7 2,9 22 12 32 18 ZW 998,7 10 0,0
17.01.2019 06:00:00 3,5 2,7 3,1 22 12 32 18 ZW 998,9 14 0,0
17.01.2019 05:00:00 3,7 2,8 3,3 18 10 32 18 ZW 999,0 26 0,0
17.01.2019 04:00:00 4,1 2,8 3,7 22 12 36 19 WZW 999,1 44 0,0
17.01.2019 03:00:00 4,2 2,9 4,0 22 12 40 21 WZW 999,3 49 0,0
17.01.2019 02:00:00 4,2 3,4 4,1 18 10 22 12 ZW 999,2 50 0,0
17.01.2019 01:00:00 4,3 3,8 4,3 14 8 29 16 ZW 998,8 41 0,7
17.01.2019 00:00:00 5,0 4,5 5,0 22 12 40 21 W 999,1 4,6 0,8
16.01.2019 23:00:00 4,9 4,3 4,9 25 14 43 23 ZW 998,7 3,7 0,5
16.01.2019 22:00:00 4,7 3,9 4,6 29 16 43 23 ZZW 999,1 5 0,7
16.01.2019 21:00:00 4,8 3,4 4,7 25 14 40 21 ZZW 999,7 9 0,2
16.01.2019 20:00:00 4,7 3,3 4,5 25 14 43 23 ZZW 1000,5 10 0,1
16.01.2019 19:00:00 4,9 3,3 4,7 25 14 40 21 ZZW 1001,0 17 0,0
16.01.2019 18:00:00 5,0 3,7 4,8 25 14 40 21 ZZW 1001,9 11 0,2
16.01.2019 17:00:00 5,3 3,9 5,1 25 14 40 21 ZZW 1002,6 14 0,1
16.01.2019 16:00:00 5,5 4,5 5,3 25 14 43 23 ZZW 1003,2 7 0,1
16.01.2019 15:00:00 5,7 4,4 5,6 29 16 43 23 ZW 1004,0 6 0,1
16.01.2019 14:00:00 6,0 4,4 6,0 32 18 50 27 ZW 1004,8 10 0,0
16.01.2019 13:00:00 6,1 4,5 6,1 32 18 50 27 ZW 1005,7 20 0,0
16.01.2019 12:00:00 6,1 5,2 6,1 29 16 40 21 ZW 1006,6 12 0,0
16.01.2019 11:00:00 6,5 5,7 6,4 29 16 43 23 ZW 1007,2 7 0,0
16.01.2019 10:00:00 6,8 5,9 6,8 25 14 43 23 ZW 1007,7 11 0,0
16.01.2019 09:00:00 7,4 5,6 7,3 25 14 43 23 ZW 1007,7 17 0,0
16.01.2019 08:00:00 7,5 5,6 7,3 29 16 43 23 ZW 1007,8 18 0,0
16.01.2019 07:00:00 7,6 5,2 7,3 29 16 43 23 ZW 1008,2 29 0,0
16.01.2019 06:00:00 7,5 5,1 7,2 29 16 43 23 ZW 1008,7 29 0,0
16.01.2019 05:00:00 7,5 5,4 7,2 25 14 40 21 ZW 1009,4 22 0,0
16.01.2019 04:00:00 7,4 5,5 7,2 25 14 40 21 ZW 1010,0 19 0,0
16.01.2019 03:00:00 7,5 5,8 7,3 25 14 40 21 ZW 1010,5 17 0,0
16.01.2019 02:00:00 7,3 5,8 7,2 25 14 36 19 ZW 1010,8 16 0,0
16.01.2019 01:00:00 7,4 5,8 7,2 25 14 36 19 WZW 1011,5 17 0,0
16.01.2019 00:00:00 7,4 5,9 7,2 22 12 36 19 ZW 1011,8 17 0,0
15.01.2019 23:00:00 7,5 5,9 7,3 25 14 40 21 WZW 1012,4 15 0,0
15.01.2019 22:00:00 7,4 5,8 7,2 29 16 43 23 WZW 1012,9 16 0,0
15.01.2019 21:00:00 7,3 5,7 7,0 25 14 40 21 WZW 1012,9 17 0,0
15.01.2019 20:00:00 7,1 5,9 6,8 25 14 43 23 WZW 1012,9 13 0,1
15.01.2019 19:00:00 6,9 6,1 6,7 29 16 40 21 WZW 1012,9 12 0,2
15.01.2019 18:00:00 6,6 6,2 6,6 25 14 43 23 W 1013,1 2,6 0,3
15.01.2019 17:00:00 7,0 5,8 6,9 29 16 43 23 W 1013,3 4,1 0,0
15.01.2019 16:00:00 7,6 5,2 7,4 25 14 40 21 WZW 1013,2 22 0,0
15.01.2019 15:00:00 7,6 5,2 7,6 29 16 47 25 WZW 1013,3 26 0,0
15.01.2019 14:00:00 7,6 5,3 7,7 29 16 47 25 WZW 1013,6 23 0,0
15.01.2019 13:00:00 7,4 5,3 7,5 32 18 50 27 WZW 1013,8 20 0,0
15.01.2019 12:00:00 6,5 5,0 6,4 25 14 40 21 WZW 1014,5 16 0,0
15.01.2019 11:00:00 6,2 4,7 6,2 25 14 40 21 WZW 1014,9 15 0,0
15.01.2019 10:00:00 6,0 4,6 5,7 25 14 40 21 WZW 1015,1 13 0,0
15.01.2019 09:00:00 5,2 4,2 5,0 22 12 36 19 WZW 1015,2 11 0,0
15.01.2019 08:00:00 4,5 3,5 4,3 22 12 40 21 WZW 1015,3 11 0,0
15.01.2019 07:00:00 4,3 3,0 4,1 25 14 36 19 WZW 1015,7 16 0,0
15.01.2019 06:00:00 4,0 2,2 3,7 25 14 40 21 WZW 1016,0 34 0,0
15.01.2019 05:00:00 3,8 1,2 3,5 25 14 32 18 WZW 1016,7 35 0,0
15.01.2019 04:00:00 3,6 0,5 3,3 22 12 32 18 WZW 1017,1 32 0,0
15.01.2019 03:00:00 3,3 0,4 2,9 18 10 29 16 WZW 1017,6 29 0,0
15.01.2019 02:00:00 2,9 0,5 2,6 18 10 22 12 WZW 1017,9 23 0,0
15.01.2019 01:00:00 2,3 0,3 1,8 14 8 18 10 WZW 1018,3 24 0,0
15.01.2019 00:00:00 1,8 0,2 0,9 11 6 18 10 W 1018,4 21 0,0
14.01.2019 23:00:00 2,9 0,8 2,5 14 8 25 14 W 1018,5 16 0,0
14.01.2019 22:00:00 1,9 0,5 1,3 11 6 25 14 W 1018,4 22 0,0
14.01.2019 21:00:00 3,3 0,8 3,0 18 10 32 18 WNW 1018,1 20 0,0
14.01.2019 20:00:00 3,2 0,8 2,7 18 10 36 19 WNW 1017,5 21 0,0
14.01.2019 19:00:00 3,8 0,1 3,4 18 10 25 14 WNW 1017,1 21 0,0
14.01.2019 18:00:00 3,5 0,3 3,2 14 8 40 21 W 1016,2 21 0,0
14.01.2019 17:00:00 3,8 0,8 3,3 18 10 36 19 WNW 1015,8 19 0,0
14.01.2019 16:00:00 4,7 -0,6 4,1 22 12 47 25 WNW 1014,9 22 0,0
14.01.2019 15:00:00 5,2 -1,0 5,0 25 14 43 23 NW 1014,3 20 0,0
14.01.2019 14:00:00 5,5 -0,5 5,1 25 14 36 19 NW 1013,5 24 0,0
14.01.2019 13:00:00 4,5 1,2 4,5 25 14 50 27 WNW 1013,1 22 0,0
14.01.2019 12:00:00 4,6 1,2 4,5 25 14 43 23 WNW 1012,4 31 0,0

tt = temperatuur
td = dauwpunt
tt 5cm = temperatuur 5cm
ff = windsnelheid
fx = windstoten
dd = windrichting
ppp = luchtdruk
vv = zicht
rr = neerslag

Weerstations in de omgeving